Find Starlink 3291

NORAD ID: 50175 Int'l Des: 2021-125 Owner: SPXS Country: US Constellation: starlink operational
LEOCIRCULAR

Current View

Loading 3D Globe...

About Starlink 3291

Starlink 3291 (NORAD 50175) is a starlink constellation satellite (v1.5) launched Dec 18, 2021 by SPXS of US. It operates in LEO, CIRCULAR orbit with a mass of 290.00 kg.

About Starlink 3291

Description loading...

Upcoming Passes

Passes for default location (London). Set your location on the main map for personalized predictions.

Altitude History

Loading altitude history...

Two-Line Element Set

1 50175U 21125V 26171.31227682 .00000206 00000-0 31054-4 0 9992
2 50175 53.1600 148.3159 0001411 80.2109 279.9042 15.08834694252092
Epoch: Jun 20, 2026 • Age: 21 hours

Current Status

Altitude 540.1 km
Velocity 7.60 km/s
Sub-Earth Point 25.09°N, 169.07°W
Launch Date Dec 18, 2021
Age 4.5 years
Type internet

Technical Details

Classification Payload
Mass 290.00 kg
Dry Mass 270.00 kg
Total Mass 290.00 kg
Length 0.20 m
Diameter 2.80 m
Span 9.00 m
Shape Box + pan
Manufacturer SPXS
Bus Type Starlink
Phase Status In Orbit
Owner/State SPXS/US

Most Searched